Weather History for KAQW - September, 2013

Change the Weather History Date:

Tuesday, September 24, 2013

  Actual Average Record
Temperature  
Mean Temperature 49 °F -  
Max Temperature 63 °F 66 °F 89 °F (2010)
Min Temperature 36 °F 44 °F 32 °F (1997)
Degree Days  
Heating Degree Days 16    
Moisture  
Dew Point 39 °F    
Average Humidity 74    
Maximum Humidity 97    
Minimum Humidity 42    
Precipitation  
Precipitation 0.00 in - - ()
Sea Level Pressure  
Sea Level Pressure 29.99 in    
Wind  
Wind Speed 2 mph (NW)    
Max Wind Speed 9 mph    
Max Gust Speed 16 mph    
Visibility 10 miles    
Events      
Averages and records for this station are not official NWS values.
T = Trace of Precipitation, MM = Missing Value Source: NWS Daily Summary

Daily Weather History Graph

Daily Weather History Graph

Search for Another Location

Airport or City:

Trip Planner

Search our weather history database for the weather conditions in past years. The results will help you decide how hot, cold, wet, or windy it might be!

Date:

Astronomy

Sep. 24, 2013 Rise Set
Actual Time 6:42 AM EDT 6:46 PM EDT
Civil Twilight 6:14 AM EDT 7:14 PM EDT
Nautical Twilight 5:41 AM EDT 7:47 PM EDT
Astronomical Twilight 5:07 AM EDT 8:20 PM EDT
Moon 9:54 PM EDT (9/24) 12:01 PM EDT (9/24)
Length of Visible Light 12h 59m
Length of Day
12h 03m
Waning Gibbous, 73% of the Moon is Illuminated
Sep 24
Waning Gibbous
Sep 26
Last Quarter
Oct 4
New
Oct 11
First Quarter
Oct 18
Full

Hourly Weather History & Observations

Time (EDT) Temp. Windchill Dew Point Humidity Pressure Visibility Wind Dir Wind Speed Gust Speed Precip Events Conditions
12:21 AM 44.6 °F - 39.2 °F 81% 30.06 in 10.0 mi Calm Calm - N/A   Mostly Cloudy
12:34 AM 44.6 °F - 37.4 °F 76% 30.06 in 10.0 mi Calm Calm - N/A   Scattered Clouds
12:52 AM 42.1 °F - 37.9 °F 85% 30.07 in 10.0 mi Calm Calm - N/A   Partly Cloudy
1:52 AM 39.9 °F 37.8 °F 36.0 °F 86% 30.06 in 10.0 mi NNW 3.5 mph - N/A   Clear
2:52 AM 37.0 °F - 35.1 °F 93% 30.05 in 10.0 mi Calm Calm - N/A   Clear
3:52 AM 37.0 °F - 35.1 °F 93% 30.04 in 10.0 mi Calm Calm - N/A   Clear
4:52 AM 37.0 °F - 35.1 °F 93% 30.04 in 10.0 mi Calm Calm - N/A   Clear
5:52 AM 36.0 °F 33.3 °F 35.1 °F 97% 30.04 in 10.0 mi Variable 3.5 mph - N/A   Clear
6:52 AM 37.9 °F 32.7 °F 36.0 °F 93% 30.04 in 10.0 mi West 6.9 mph - N/A   Clear
7:52 AM 41.0 °F 39.0 °F 37.0 °F 86% 30.04 in 10.0 mi Variable 3.5 mph - N/A   Clear
8:52 AM 46.0 °F 44.8 °F 37.9 °F 73% 30.02 in 10.0 mi Variable 3.5 mph - N/A   Clear
9:52 AM 48.9 °F - 37.0 °F 64% 30.01 in 10.0 mi Variable 5.8 mph - N/A   Partly Cloudy
10:52 AM 52.0 °F - 37.0 °F 57% 30.00 in 10.0 mi NNW 5.8 mph - N/A   Clear
11:52 AM 55.0 °F - 37.0 °F 51% 29.98 in 10.0 mi NNW 9.2 mph 16.1 mph N/A   Clear
12:52 PM 57.9 °F - 37.9 °F 47% 29.97 in 10.0 mi NNW 8.1 mph - N/A   Clear
1:52 PM 60.1 °F - 37.9 °F 44% 29.95 in 10.0 mi Variable 5.8 mph - N/A   Clear
2:52 PM 61.0 °F - 37.9 °F 42% 29.93 in 10.0 mi NNW 8.1 mph - N/A   Clear
3:52 PM 62.1 °F - 39.0 °F 43% 29.91 in 10.0 mi Variable 5.8 mph - N/A   Clear
4:52 PM 62.1 °F - 41.0 °F 46% 29.90 in 10.0 mi Calm Calm - N/A   Clear
5:52 PM 60.1 °F - 41.0 °F 49% 29.91 in 10.0 mi West 4.6 mph - N/A   Clear
6:52 PM 53.1 °F - 44.1 °F 71% 29.91 in 10.0 mi Calm Calm - N/A   Clear
7:52 PM 48.0 °F - 45.0 °F 89% 29.94 in 10.0 mi Calm Calm - N/A   Clear
8:52 PM 46.0 °F - 44.1 °F 93% 29.95 in 10.0 mi Calm Calm - N/A   Clear
9:52 PM 45.0 °F - 42.1 °F 90% 29.96 in 10.0 mi Calm Calm - N/A   Clear
10:52 PM 43.0 °F - 41.0 °F 93% 29.98 in 10.0 mi Calm Calm - N/A   Clear
11:52 PM 43.0 °F - 41.0 °F 93% 29.98 in 10.0 mi Calm Calm - N/A   Scattered Clouds